Redmond, OR

7:17 AM PDT on March 28, 2017 (GMT -0700)
Roberts Field Airport

Weather History for KRDM - February, 2014

Change the Weather History Date:

Monday, February 3, 2014

  Actual Average Record
Temperature  
Mean Temperature 24 °F 34 °F  
Max Temperature 38 °F 45 °F 67 °F (2005)
Min Temperature 10 °F 24 °F -11 °F (1950)
Degree Days  
Heating Degree Days 41 31  
Month to date heating degree days 114 93  
Since 1 July heating degree days 3944 3933  
Cooling Degree Days 0 0  
Month to date cooling degree days 0 0  
Year to date cooling degree days 0 0  
Moisture  
Dew Point 20 °F    
Average Humidity 72    
Maximum Humidity 96    
Minimum Humidity 47    
Precipitation  
Precipitation T in 0.02 in 0.30 in (2004)
Month to date precipitation 0.03 0.07  
Year to date precipitation 0.55 1.04  
Sea Level Pressure  
Sea Level Pressure 29.97 in    
Wind  
Wind Speed 5 mph (NW)    
Max Wind Speed 23 mph    
Max Gust Speed 29 mph    
Visibility 6 miles    
Events Fog , Snow    
T = Trace of Precipitation, MM = Missing Value Source: NWS Daily Summary

Daily Weather History Graph

Daily Weather History Graph

Search for Another Location

Airport or City:

Trip Planner

Search our weather history database for the weather conditions in past years. The results will help you decide how hot, cold, wet, or windy it might be!

Date:

Astronomy

Feb. 03, 2014 Rise Set
Actual Time 7:20 AM PST 5:17 PM PST
Civil Twilight 6:49 AM PST 5:48 PM PST
Nautical Twilight 6:14 AM PST 6:22 PM PST
Astronomical Twilight 5:41 AM PST 6:56 PM PST
Moon 9:13 AM PST (2/3) 10:26 PM PST (2/3)
Length of Visible Light 10h 58m
Length of Day
9h 57m
Waxing Crescent, 20% of the Moon is Illuminated
Feb 3
Waxing Crescent
Feb 6
First Quarter
Feb 14
Full
Feb 22
Last Quarter
Mar 1
New

Hourly Weather History & Observations

Time (PST) Temp. Windchill Dew Point Humidity Pressure Visibility Wind Dir Wind Speed Gust Speed Precip Events Conditions
12:23 AM 27.0 °F 23.0 °F 25.0 °F 92% 29.87 in 9.0 mi NW 3.5 mph - 0.00 in   Overcast
12:30 AM 27.0 °F - 25.0 °F 92% 29.87 in 10.0 mi Calm Calm - 0.00 in   Overcast
12:56 AM 27.0 °F 23.0 °F 25.0 °F 92% 29.94 in 10.0 mi West 3.5 mph - 0.00 in   Overcast
1:32 AM 25.0 °F 20.7 °F 23.0 °F 92% 29.89 in 2.5 mi WNW 3.5 mph - N/A   Overcast
1:38 AM 24.1 °F 19.7 °F 23.0 °F 96% 29.88 in 0.8 mi West 3.5 mph - N/A   Overcast
1:48 AM 25.0 °F 20.7 °F 23.0 °F 92% 29.89 in 0.2 mi WSW 3.5 mph - N/A Fog Light Freezing Fog
1:56 AM 23.0 °F - 21.9 °F 96% 29.95 in 0.2 mi Calm Calm - N/A Fog Light Freezing Fog
2:56 AM 23.0 °F - 21.0 °F 92% 29.96 in 0.2 mi Calm Calm - N/A Fog Light Freezing Fog
3:21 AM 21.9 °F - 21.0 °F 96% 29.89 in 0.5 mi Calm Calm - N/A Fog Light Freezing Fog
3:38 AM 21.9 °F 17.2 °F 19.9 °F 92% 29.89 in 1.8 mi SSE 3.5 mph - N/A   Overcast
3:42 AM 21.9 °F - 19.9 °F 92% 29.89 in 3.0 mi Calm Calm - N/A   Overcast
3:56 AM 21.9 °F - 19.9 °F 92% 29.95 in 8.0 mi Calm Calm - N/A   Overcast
4:04 AM 21.9 °F - 19.9 °F 92% 29.88 in 1.8 mi Calm Calm - N/A   Overcast
4:13 AM 21.0 °F 16.2 °F 19.0 °F 92% 29.88 in 2.0 mi ENE 3.5 mph - N/A   Overcast
4:21 AM 21.0 °F - 19.0 °F 92% 29.89 in 5.0 mi Calm Calm - N/A   Overcast
4:45 AM 19.9 °F - 18.0 °F 92% 29.89 in 4.0 mi Calm Calm - N/A   Overcast
4:48 AM 19.9 °F - 18.0 °F 92% 29.89 in 1.8 mi Calm Calm - N/A   Overcast
4:56 AM 19.0 °F - 17.1 °F 92% 29.96 in 0.5 mi Calm Calm - N/A Fog Light Freezing Fog
5:11 AM 21.0 °F - 19.0 °F 92% 29.89 in 1.0 mi Calm Calm - N/A   Overcast
5:33 AM 21.9 °F - 19.0 °F 89% 29.89 in 3.0 mi Calm Calm - N/A   Overcast
5:56 AM 21.9 °F - 19.0 °F 89% 29.97 in 10.0 mi Calm Calm - N/A   Overcast
6:56 AM 14.0 °F - 10.9 °F 88% 29.99 in 10.0 mi Calm Calm - N/A   Clear
7:56 AM 12.0 °F - 9.0 °F 88% 30.03 in 10.0 mi Calm Calm - N/A   Partly Cloudy
8:03 AM 12.9 °F - 10.0 °F 88% 29.93 in 2.5 mi Calm Calm - N/A   Mostly Cloudy
8:05 AM 12.9 °F - 10.0 °F 88% 29.93 in 0.8 mi Calm Calm - N/A   Mist
8:14 AM 10.9 °F - 9.0 °F 92% 29.94 in 0.2 mi Calm Calm - N/A Fog Light Freezing Fog
8:41 AM 17.1 °F - 15.1 °F 92% 29.95 in 1.0 mi Calm Calm - N/A   Overcast
8:43 AM 17.1 °F - 15.1 °F 92% 29.95 in 2.0 mi Calm Calm - N/A   Overcast
8:56 AM 17.1 °F 11.7 °F 15.1 °F 92% 30.04 in 10.0 mi SSE 3.5 mph - N/A   Mostly Cloudy
9:56 AM 27.0 °F - 25.0 °F 92% 30.03 in 10.0 mi Calm Calm - N/A   Clear
10:56 AM 30.0 °F - 21.9 °F 72% 30.02 in 10.0 mi Calm Calm - N/A   Mostly Cloudy
11:56 AM 33.1 °F 24.4 °F 25.0 °F 72% 30.01 in 10.0 mi NW 11.5 mph - N/A   Overcast
12:56 PM 35.1 °F 25.9 °F 21.0 °F 57% 29.98 in 10.0 mi WNW 13.8 mph - N/A   Scattered Clouds
1:56 PM 36.0 °F 26.0 °F 19.9 °F 52% 29.96 in 10.0 mi NW 17.3 mph 24.2 mph N/A   Mostly Cloudy
2:56 PM 35.1 °F 24.8 °F 19.0 °F 52% 29.98 in 10.0 mi WNW 17.3 mph 27.6 mph N/A   Partly Cloudy
3:56 PM 35.1 °F 24.8 °F 18.0 °F 50% 29.99 in 10.0 mi WNW 17.3 mph - N/A   Scattered Clouds
4:56 PM 30.9 °F 19.8 °F 19.0 °F 61% 30.03 in 10.0 mi NW 16.1 mph - N/A   Overcast
5:56 PM 30.0 °F 23.2 °F 21.9 °F 72% 30.04 in 10.0 mi NW 6.9 mph - N/A   Overcast
6:56 PM 30.0 °F 25.2 °F 24.1 °F 79% 30.07 in 10.0 mi North 4.6 mph - N/A   Overcast
7:21 PM 28.9 °F - 23.0 °F 78% 29.98 in 10.0 mi Calm Calm - N/A   Overcast
7:56 PM 28.9 °F 25.2 °F 21.0 °F 72% 30.08 in 10.0 mi NW 3.5 mph - N/A   Overcast
8:56 PM 28.0 °F - 21.0 °F 75% 30.09 in 10.0 mi Calm Calm - N/A   Overcast
9:16 PM 28.9 °F - 21.0 °F 72% 30.00 in 10.0 mi Calm Calm - N/A   Overcast
9:40 PM 28.0 °F 22.8 °F 21.9 °F 78% 30.00 in 2.0 mi NNE 4.6 mph - 0.00 in Snow Light Snow
9:48 PM 27.0 °F - 21.9 °F 81% 30.00 in 1.5 mi Calm Calm - 0.00 in Snow Light Snow
9:56 PM 27.0 °F - 23.0 °F 85% 30.08 in 3.0 mi Calm Calm - 0.00 in Snow Light Snow
10:10 PM 27.0 °F - 23.0 °F 85% 30.00 in 4.0 mi Calm Calm - 0.00 in Snow Light Snow
10:56 PM 27.0 °F 18.7 °F 21.0 °F 78% 30.08 in 9.0 mi North 8.1 mph - 0.00 in Snow Light Snow
11:08 PM 27.0 °F 19.5 °F 21.0 °F 78% 30.01 in 7.0 mi North 6.9 mph - 0.00 in Snow Light Snow
11:56 PM 26.1 °F 18.4 °F 21.0 °F 81% 30.09 in 9.0 mi NW 6.9 mph - 0.00 in Snow Light Snow